Aberdeen, SD

6:04 AM CDT on June 23, 2017 (GMT -0500)
Aberdeen Regional

Weather History for KABR - July, 2012

Change the Weather History Date:

Friday, July 27, 2012

  Actual Average Record
Temperature  
Mean Temperature 68 °F 72 °F  
Max Temperature 79 °F 84 °F 110 °F (1931)
Min Temperature 57 °F 59 °F 41 °F (2013)
Degree Days  
Heating Degree Days 0 0  
Month to date heating degree days 0 8  
Since 1 June heating degree days 31 84  
Since 1 July heating degree days 0 8  
Cooling Degree Days 3 7  
Month to date cooling degree days 337 180  
Year to date cooling degree days 562 295  
Since 1 June cooling degree days 520 272  
Growing Degree Days 18 (Base 50)    
Moisture  
Dew Point 55 °F    
Average Humidity 66    
Maximum Humidity 93    
Minimum Humidity 39    
Precipitation  
Precipitation 0.00 in 0.08 in 2.14 in (1914)
Month to date precipitation 2.44 2.68  
Year to date precipitation 10.42 13.52  
Sea Level Pressure  
Sea Level Pressure 30.05 in    
Wind  
Wind Speed 5 mph (NNE)    
Max Wind Speed 10 mph    
Max Gust Speed 14 mph    
Visibility 10 miles    
Events      
T = Trace of Precipitation, MM = Missing Value Source: NWS Daily Summary

Daily Weather History Graph

Daily Weather History Graph

Search for Another Location

Airport or City:

Trip Planner

Search our weather history database for the weather conditions in past years. The results will help you decide how hot, cold, wet, or windy it might be!

Date:

Astronomy

Jul. 27, 2012 Rise Set
Actual Time 6:12 AM CDT 9:07 PM CDT
Civil Twilight 5:37 AM CDT 9:41 PM CDT
Nautical Twilight 4:53 AM CDT 10:25 PM CDT
Astronomical Twilight 4:00 AM CDT 11:17 PM CDT
Moon 4:07 PM CDT (7/27) 12:47 AM CDT (7/27)
Length of Visible Light 16h 03m
Length of Day
14h 54m
Waxing Gibbous, 65% of the Moon is Illuminated
Jul 27
Waxing Gibbous
Aug 1
Full
Aug 9
Last Quarter
Aug 17
New
Aug 24
First Quarter

Hourly Weather History & Observations

Time (CDT) Temp. Dew Point Humidity Pressure Visibility Wind Dir Wind Speed Gust Speed Precip Events Conditions
12:53 AM 62.1 °F 57.0 °F 84% 30.01 in 10.0 mi NNW 8.1 mph - N/A   Clear
1:53 AM 61.0 °F 57.0 °F 87% 30.01 in 10.0 mi North 9.2 mph - N/A   Clear
2:53 AM 60.1 °F 55.9 °F 86% 30.02 in 10.0 mi NNW 8.1 mph - N/A   Clear
3:53 AM 59.0 °F 55.0 °F 87% 30.02 in 10.0 mi NNW 6.9 mph - N/A   Clear
4:53 AM 57.9 °F 55.0 °F 90% 30.03 in 10.0 mi NNW 5.8 mph - N/A   Clear
5:53 AM 57.0 °F 54.0 °F 89% 30.05 in 10.0 mi NW 8.1 mph - N/A   Clear
6:53 AM 57.9 °F 54.0 °F 87% 30.07 in 10.0 mi NNW 4.6 mph - N/A   Clear
7:53 AM 62.1 °F 55.9 °F 80% 30.09 in 10.0 mi NW 5.8 mph - N/A   Clear
8:53 AM 66.0 °F 55.9 °F 70% 30.09 in 10.0 mi North 3.5 mph - N/A   Clear
9:53 AM 69.1 °F 57.0 °F 65% 30.09 in 10.0 mi Calm Calm - N/A   Clear
10:53 AM 72.0 °F 55.9 °F 57% 30.10 in 10.0 mi Variable 6.9 mph - N/A   Clear
11:53 AM 73.0 °F 55.0 °F 53% 30.09 in 10.0 mi Calm Calm - N/A   Clear
12:53 PM 75.0 °F 54.0 °F 48% 30.08 in 10.0 mi Variable 5.8 mph - N/A   Clear
1:53 PM 75.9 °F 54.0 °F 46% 30.07 in 10.0 mi Variable 4.6 mph - N/A   Clear
2:53 PM 78.1 °F 53.1 °F 42% 30.06 in 10.0 mi Calm Calm - N/A   Clear
3:53 PM 78.1 °F 54.0 °F 43% 30.05 in 10.0 mi ESE 8.1 mph - N/A   Clear
4:53 PM 79.0 °F 55.9 °F 45% 30.04 in 10.0 mi East 6.9 mph - N/A   Clear
5:53 PM 78.1 °F 54.0 °F 43% 30.02 in 10.0 mi ENE 6.9 mph - N/A   Clear
6:53 PM 78.1 °F 52.0 °F 40% 30.03 in 10.0 mi SE 3.5 mph - N/A   Clear
7:53 PM 75.2 °F 57.2 °F 53% 30.05 in 10.0 mi ENE 3.5 mph - N/A   Clear
8:53 PM 70.0 °F 59.0 °F 68% 30.02 in 10.0 mi ENE 4.6 mph - N/A   Clear
9:53 PM 69.1 °F 60.1 °F 73% 30.03 in 10.0 mi Calm Calm - N/A   Clear
10:53 PM 68.0 °F 57.0 °F 68% 30.02 in 10.0 mi ESE 6.9 mph - N/A   Clear
11:53 PM 63.0 °F 55.9 °F 78% 30.03 in 10.0 mi ESE 4.6 mph - N/A   Clear